sat.trackr.live / text

‹ back to catalog

STARLINK-34518

NORAD 64480 · 2025-133J

PAYLOAD ACTIVE UNKNOWN

§ Identity

Operator
Country
US
Launch date
2025-06-23
Launch site
AFETR
Launch vehicle
Mass (kg)
RCS (m²)

Purposes: comms

External: N2YO · Heavens-Above · Gunter

§ Orbital elements

Epoch: 2026-05-25T04:32:28.920768Z

Period
94.10 min
Inclination
53.1598°
Eccentricity
0.0001403
Mean motion
15.30216302 rev/d
Perigee alt
474.2 km
Apogee alt
476.1 km
Semi-major
6,853.3 km
B*
9.0856e-4
RAAN
121.2663°
Arg perigee
71.1647°
Mean anomaly
288.9506°
Rev number
5,274

§ Raw data

STARLINK-345181 64480U 25133J   26145.18922362  .00026660  00000+0  90856-3 0  99972 64480  53.1598 121.2663 0001403  71.1647 288.9506 15.30216302 52749

JSON: /api/v1/satellites/64480 · /tle

For live sub-satellite position, see the globe view (requires WebGL).

§ Visibility from observer

Set your observer location to see the next 7 days of passes ≥ 10°. The values pass through the URL so the page stays shareable.

No JS? Fill the form by hand. The geolocation button needs JavaScript.